Big Bear Station Historical Data
Daily Summary for April 3, 2017 Units:  English    Metric   Both
« Previous Day
Next Day »
Daily Weekly Monthly Yearly Custom
  High: Low: Average:
Temperature: 61.2 °F 32.5 °F 45.7 °F
Dew Point: 39.7 °F 13.4 °F 27.1 °F
Humidity: 82 % 21 % 52 %
Wind Speed: 9.9 mph 0.0 mph 2.7 mph
Wind Gust: -999.0 mph - -
Wind:- - WSW
Pressure: 30.08 in 29.97 in -
Precipitation: 0.00 in    
Historical Graphs
 
 
Tabular Data for April 3, 2017
Time Temperature Dew Point Pressure Wind Wind Speed Wind Gust Humidity Rainfall Rate (Hourly)
00:04 40.8 °F 22.6 °F 30.08 in South 2.2 mph -999.0 mph 48 % 0 in
00:19 39.4 °F 22.8 °F 30.08 in South 2.7 mph -999.0 mph 51 % 0 in
00:34 39.0 °F 22.4 °F 30.07 in Calm   -999.0 mph 51 % 0 in
00:50 38.5 °F 22.4 °F 30.07 in South 1.7 mph -999.0 mph 52 % 0 in
01:05 37.4 °F 22.7 °F 30.06 in South 2.2 mph -999.0 mph 55 % 0 in
01:20 36.9 °F 23.5 °F 30.05 in South 1.7 mph -999.0 mph 58 % 0 in
01:35 36.7 °F 23.7 °F 30.05 in South 1.1 mph -999.0 mph 59 % 0 in
01:50 36.3 °F 24.1 °F 30.05 in Calm   -999.0 mph 61 % 0 in
02:06 35.6 °F 23.5 °F 30.05 in SSE 1.7 mph -999.0 mph 61 % 0 in
02:21 35.8 °F 24.0 °F 30.04 in South 1.7 mph -999.0 mph 62 % 0 in
02:36 35.2 °F 23.9 °F 30.04 in Calm   -999.0 mph 63 % 0 in
02:52 35.2 °F 24.2 °F 30.04 in SSE 1.7 mph -999.0 mph 64 % 0 in
03:07 35.1 °F 23.0 °F 30.03 in SSE 1.7 mph -999.0 mph 61 % 0 in
03:22 34.9 °F 22.0 °F 30.03 in SSW 2.2 mph -999.0 mph 59 % 0 in
03:37 34.3 °F 21.5 °F 30.02 in South 2.7 mph -999.0 mph 59 % 0 in
03:53 34.0 °F 22.3 °F 30.02 in Calm   -999.0 mph 62 % 0 in
04:09 33.6 °F 23.8 °F 30.01 in Calm   -999.0 mph 67 % 0 in
04:24 33.4 °F 23.3 °F 30.01 in South 2.2 mph -999.0 mph 66 % 0 in
04:39 32.7 °F 23.3 °F 30.01 in South 2.2 mph -999.0 mph 68 % 0 in
04:54 32.5 °F 23.8 °F 30.01 in South 1.7 mph -999.0 mph 70 % 0 in
05:15 32.7 °F 25.0 °F 30.00 in Calm   -999.0 mph 73 % 0 in
05:30 32.5 °F 25.1 °F 30.00 in SSE 2.7 mph -999.0 mph 74 % 0 in
05:45 32.7 °F 26.3 °F 30.00 in Calm   -999.0 mph 77 % 0 in
06:01 33.8 °F 28.3 °F 30.00 in Calm   -999.0 mph 80 % 0 in
06:16 35.8 °F 30.8 °F 29.99 in SSE 2.7 mph -999.0 mph 82 % 0 in
06:31 37.2 °F 31.3 °F 29.99 in Calm   -999.0 mph 79 % 0 in
06:46 37.8 °F 31.6 °F 29.99 in Calm   -999.0 mph 78 % 0 in
07:01 37.8 °F 31.9 °F 30.00 in Calm   -999.0 mph 79 % 0 in
07:16 37.8 °F 32.2 °F 30.00 in SE 2.2 mph -999.0 mph 80 % 0 in
07:32 37.9 °F 32.0 °F 30.00 in South 1.7 mph -999.0 mph 79 % 0 in
07:47 38.3 °F 32.0 °F 30.00 in SE 1.7 mph -999.0 mph 78 % 0 in
08:03 39.7 °F 28.1 °F 30.00 in SSW 3.7 mph -999.0 mph 63 % 0 in
08:18 42.3 °F 25.0 °F 30.00 in South 1.1 mph -999.0 mph 50 % 0 in
08:33 44.2 °F 23.1 °F 30.00 in Calm   -999.0 mph 43 % 0 in
08:48 47.5 °F 24.4 °F 30.00 in NE 1.1 mph -999.0 mph 40 % 0 in
09:04 47.3 °F 24.2 °F 30.00 in NW 3.7 mph -999.0 mph 40 % 0 in
09:19 47.8 °F 21.5 °F 30.01 in ENE 3.2 mph -999.0 mph 35 % 0 in
09:34 48.9 °F 18.0 °F 30.01 in NNW 3.2 mph -999.0 mph 29 % 0 in
09:49 50.2 °F 14.8 °F 30.01 in NNW 3.2 mph -999.0 mph 24 % 0 in
10:04 50.9 °F 13.4 °F 30.01 in West 3.7 mph -999.0 mph 22 % 0 in
10:20 52.0 °F 16.3 °F 30.01 in NW 6.3 mph -999.0 mph 24 % 0 in
10:35 52.9 °F 17.1 °F 30.01 in NW 5.3 mph -999.0 mph 24 % 0 in
10:50 54.1 °F 16.1 °F 30.01 in SW 3.2 mph -999.0 mph 22 % 0 in
11:06 56.7 °F 17.2 °F 30.01 in NNW 6.3 mph -999.0 mph 21 % 0 in
11:21 57.4 °F 22.8 °F 30.01 in NNW 5.3 mph -999.0 mph 26 % 0 in
11:36 57.9 °F 21.3 °F 30.01 in SE 3.2 mph -999.0 mph 24 % 0 in
11:51 57.7 °F 22.1 °F 30.01 in SSW 4.2 mph -999.0 mph 25 % 0 in
12:06 59.5 °F 23.6 °F 30.01 in North 5.8 mph -999.0 mph 25 % 0 in
12:22 59.4 °F 26.3 °F 30.01 in NW 3.7 mph -999.0 mph 28 % 0 in
12:37 61.2 °F 25.1 °F 30.00 in NNE 1.7 mph -999.0 mph 25 % 0 in
12:52 60.3 °F 23.3 °F 30.01 in WNW 6.3 mph -999.0 mph 24 % 0 in
13:08 60.6 °F 25.5 °F 29.99 in West 3.2 mph -999.0 mph 26 % 0 in
13:23 61.0 °F 25.8 °F 29.99 in WNW 6.8 mph -999.0 mph 26 % 0 in
13:38 61.2 °F 24.1 °F 29.99 in NW 9.9 mph -999.0 mph 24 % 0 in
13:53 60.6 °F 28.2 °F 29.99 in NW 5.8 mph -999.0 mph 29 % 0 in
14:09 60.8 °F 29.2 °F 29.98 in NW 7.8 mph -999.0 mph 30 % 0 in
14:25 59.9 °F 23.0 °F 29.97 in SSW 4.7 mph -999.0 mph 24 % 0 in
14:40 59.0 °F 28.4 °F 29.98 in NNW 4.7 mph -999.0 mph 31 % 0 in
14:55 58.5 °F 33.6 °F 29.98 in NW 4.7 mph -999.0 mph 39 % 0 in
15:10 57.0 °F 34.1 °F 29.98 in West 2.2 mph -999.0 mph 42 % 0 in
15:26 57.2 °F 36.6 °F 29.98 in NNW 7.8 mph -999.0 mph 46 % 0 in
15:41 55.8 °F 36.4 °F 29.98 in NNW 3.7 mph -999.0 mph 48 % 0 in
15:56 55.0 °F 35.1 °F 29.97 in NNW 4.7 mph -999.0 mph 47 % 0 in
16:12 54.3 °F 35.5 °F 29.97 in NNE 5.3 mph -999.0 mph 49 % 0 in
16:27 55.0 °F 34.6 °F 29.97 in West 1.7 mph -999.0 mph 46 % 0 in
16:42 55.6 °F 35.1 °F 29.98 in North 4.7 mph -999.0 mph 46 % 0 in
16:57 57.4 °F 34.5 °F 29.98 in SW 3.7 mph -999.0 mph 42 % 0 in
17:12 58.3 °F 39.7 °F 29.98 in WNW 4.2 mph -999.0 mph 50 % 0 in
17:28 56.5 °F 39.6 °F 29.98 in WNW 3.7 mph -999.0 mph 53 % 0 in
17:43 56.7 °F 37.7 °F 29.99 in NNW 2.2 mph -999.0 mph 49 % 0 in
17:58 52.7 °F 35.6 °F 29.99 in WNW 2.7 mph -999.0 mph 52 % 0 in
18:14 49.8 °F 38.5 °F 29.99 in NW 3.2 mph -999.0 mph 65 % 0 in
18:29 48.9 °F 34.8 °F 29.99 in NW 3.7 mph -999.0 mph 58 % 0 in
18:44 48.6 °F 34.9 °F 29.99 in Calm   -999.0 mph 59 % 0 in
19:00 47.7 °F 32.3 °F 30.00 in Calm   -999.0 mph 55 % 0 in
19:15 46.2 °F 32.7 °F 30.00 in NW 1.7 mph -999.0 mph 59 % 0 in
19:30 45.3 °F 31.0 °F 30.00 in NW 2.7 mph -999.0 mph 57 % 0 in
19:45 45.7 °F 30.5 °F 30.01 in NNE 2.2 mph -999.0 mph 55 % 0 in
20:00 45.5 °F 30.7 °F 30.01 in NNW 3.7 mph -999.0 mph 56 % 0 in
20:16 45.3 °F 30.1 °F 30.01 in NW 5.3 mph -999.0 mph 55 % 0 in
20:31 45.5 °F 28.4 °F 30.01 in North 4.7 mph -999.0 mph 51 % 0 in
20:46 45.1 °F 28.0 °F 30.02 in NNW 4.2 mph -999.0 mph 51 % 0 in
21:01 44.4 °F 28.3 °F 30.03 in NNW 3.2 mph -999.0 mph 53 % 0 in
21:17 43.9 °F 27.4 °F 30.03 in NNW 1.7 mph -999.0 mph 52 % 0 in
21:32 41.2 °F 26.7 °F 30.04 in Calm   -999.0 mph 56 % 0 in
21:47 39.4 °F 26.7 °F 30.04 in SSW 1.7 mph -999.0 mph 60 % 0 in
22:02 39.0 °F 27.1 °F 30.04 in SSE 2.2 mph -999.0 mph 62 % 0 in
22:18 38.5 °F 27.4 °F 30.05 in South 2.2 mph -999.0 mph 64 % 0 in
22:33 37.9 °F 27.6 °F 30.05 in SSW 1.7 mph -999.0 mph 66 % 0 in
22:48 37.2 °F 27.3 °F 30.05 in Calm   -999.0 mph 67 % 0 in
23:03 36.9 °F 27.7 °F 30.06 in Calm   -999.0 mph 69 % 0 in
23:18 36.5 °F 27.6 °F 30.06 in South 1.7 mph -999.0 mph 70 % 0 in
23:34 35.4 °F 26.6 °F 30.06 in Calm   -999.0 mph 70 % 0 in
23:49 35.1 °F 26.6 °F 30.06 in Calm   -999.0 mph 71 % 0 in
Big Bear CA Weather
Compliments of Weather Underground - 1.5 mb